Simultaneous Nadir Overpasses (SNOs) Predictions

Prediction of SNOs between GOES-15 and FY3D Satellite Orbit:

Table of predicted SNOs for the next 14.0 days since TLE Epoch: 7/11/2020
Index Date Time (GOES-15) GOES-15 Lat,Lon FY3D Lat,Lon Distance(km) Time Diff (sec)
1 07/12/2020 10:08:15 0.03,-128.36 0.18,-129.00 73.94 80
2 07/13/2020 09:46:40 0.03,-128.37 -0.89,-124.43 449.16 80
3 07/14/2020 22:08:18 -0.03,-128.33 -0.30,-129.66 150.55 80
4 07/15/2020 21:52:02 -0.02,-128.34 0.71,-125.07 372.42 80
5 07/17/2020 10:13:32 0.02,-128.41 0.43,-130.27 212.43 80
6 07/18/2020 09:51:56 0.01,-128.41 -0.63,-125.70 309.71 80
7 07/19/2020 22:13:35 0.00,-128.36 -0.54,-130.93 291.93 80
8 07/20/2020 21:57:18 0.01,-128.36 0.47,-126.34 230.07 80
9 07/22/2020 10:18:49 -0.01,-128.42 0.69,-131.54 355.76 80
10 07/23/2020 09:57:12 -0.02,-128.41 -0.32,-126.95 165.93 80
11 07/24/2020 22:18:50 0.02,-128.35 -0.84,-132.18 436.49 80
